Perry, FL

3:55 PM EDT on July 21, 2017 (GMT -0400)
Perry

Weather History for K40J - January, 2013

Change the Weather History Date:

Tuesday, January 1, 2013

  Actual Average (KVLD) Record (KVLD)
Temperature  
Mean Temperature 60 °F -  
Max Temperature 73 °F 60 °F 75 °F (2017)
Min Temperature 46 °F 37 °F 45 °F (2015)
Degree Days  
Heating Degree Days 6    
Growing Degree Days 10 (Base 50)    
Moisture  
Dew Point 52 °F    
Average Humidity 75    
Maximum Humidity 93    
Minimum Humidity 50    
Precipitation  
Precipitation 0.00 in - - ()
Sea Level Pressure  
Sea Level Pressure 30.09 in    
Wind  
Wind Speed 5 mph (SSE)    
Max Wind Speed 18 mph    
Max Gust Speed 26 mph    
Averages and records for this station are not official NWS values.
T = Trace of Precipitation, MM = Missing Value Source: NWS Daily Summary

Daily Weather History Graph

Daily Weather History Graph

Search for Another Location

Airport or City:

Trip Planner

Search our weather history database for the weather conditions in past years. The results will help you decide how hot, cold, wet, or windy it might be!

Date:

Astronomy

Jan. 01, 2013 Rise Set
Actual Time 7:30 AM EST 5:45 PM EST
Civil Twilight 7:04 AM EST 6:12 PM EST
Nautical Twilight 6:34 AM EST 6:41 PM EST
Astronomical Twilight 6:05 AM EST 7:11 PM EST
Moon 9:55 PM EST (1/1) 10:00 AM EST (1/1)
Length of Visible Light 11h 07m
Length of Day
10h 15m
Waning Gibbous, 83% of the Moon is Illuminated
Jan 1
Waning Gibbous
Jan 4
Last Quarter
Jan 11
New
Jan 18
First Quarter
Jan 26
Full

Hourly Weather History & Observations

Time (EST) Temp. Dew Point Humidity Pressure Visibility Wind Dir Wind Speed Gust Speed Precip Events Conditions
12:53 AM 46.9 °F 45.0 °F 93% 30.20 in - East 3.5 mph - N/A   Unknown
1:53 AM 46.9 °F 44.1 °F 90% 30.17 in - ESE 3.5 mph - N/A   Unknown
2:53 AM 46.0 °F 44.1 °F 93% 30.17 in - Calm Calm - N/A   Unknown
3:53 AM 46.9 °F 45.0 °F 93% 30.17 in - Calm Calm - N/A   Unknown
4:53 AM 50.0 °F 48.0 °F 93% 30.15 in - Calm Calm - N/A   Unknown
5:53 AM 53.1 °F 48.9 °F 86% 30.12 in - ESE 4.6 mph - N/A   Unknown
6:53 AM 53.1 °F 48.9 °F 86% 30.12 in - Calm Calm - N/A   Unknown
7:53 AM 54.0 °F 50.0 °F 86% 30.14 in - Calm Calm - N/A   Unknown
8:53 AM 57.0 °F 51.1 °F 81% 30.13 in - SSE 6.9 mph - N/A   Unknown
9:53 AM 66.0 °F 53.1 °F 63% 30.13 in - SSE 11.5 mph - N/A   Unknown
10:53 AM 72.0 °F 55.0 °F 55% 30.13 in - SSW 18.4 mph 21.9 mph N/A   Unknown
11:53 AM 73.0 °F 54.0 °F 51% 30.12 in - SSW 17.3 mph 21.9 mph N/A   Unknown
12:53 PM 73.9 °F 54.0 °F 50% 30.09 in - South 16.1 mph 26.5 mph N/A   Unknown
1:53 PM 73.9 °F 55.0 °F 52% 30.07 in - SSW 12.7 mph - N/A   Unknown
2:53 PM 72.0 °F 55.0 °F 55% 30.05 in - South 12.7 mph - N/A   Unknown
3:53 PM 71.1 °F 55.0 °F 57% 30.06 in - SSW 11.5 mph - N/A   Unknown
4:53 PM 70.0 °F 55.0 °F 59% 30.02 in - SSE 8.1 mph - N/A   Unknown
5:53 PM 66.0 °F 55.0 °F 68% 30.03 in - South 6.9 mph - N/A   Unknown
6:53 PM 61.0 °F 54.0 °F 78% 30.03 in - SSE 5.8 mph - N/A   Unknown
7:53 PM 62.1 °F 55.9 °F 80% 30.04 in - Calm Calm - N/A   Unknown
8:53 PM 62.1 °F 55.9 °F 80% 30.02 in - SE 4.6 mph - N/A   Unknown
9:53 PM 63.0 °F 57.0 °F 81% 30.03 in - Calm Calm - N/A   Unknown
10:53 PM 64.9 °F 59.0 °F 81% 30.02 in - South 6.9 mph - N/A   Unknown
11:53 PM 64.9 °F 59.0 °F 81% 30.01 in - SSW 6.9 mph - N/A   Unknown